Weather History for Akron, OH

Change the Weather History Date:

Sunday, March 4, 2012

  Actual Average (KCAK) Record (KCAK)
Temperature  
Mean Temperature 30 °F 33 °F  
Max Temperature 33 °F 42 °F 74 °F (1983)
Min Temperature 27 °F 25 °F -1 °F (1943)
Degree Days  
Heating Degree Days 35 32  
Month to date heating degree days 129  
Since 1 July heating degree days 4673  
Cooling Degree Days 0 0  
Month to date cooling degree days 0  
Year to date cooling degree days 0  
Moisture  
Dew Point 25 °F    
Average Humidity 84    
Maximum Humidity 93    
Minimum Humidity 64    
Precipitation  
Precipitation 0.01 in 0.08 in 2.44 in (1964)
Month to date precipitation 0.34  
Year to date precipitation 5.26  
Snow  
Snow 0.00 in 0.40 in - ()
Month to date snowfall 1.4  
Since 1 July snowfall 37.9  
Snow Depth -    
Sea Level Pressure  
Sea Level Pressure 29.79 in    
Wind  
Wind Speed 10 mph (West)    
Max Wind Speed 20 mph    
Max Gust Speed 25 mph    
Visibility 5 miles    
Events Fog , Snow    
T = Trace of Precipitation, MM = Missing Value Source: NWS Daily Summary

Daily Weather History Graph

Daily Weather History Graph

Search for Another Location

Airport:

Trip Planner

Search our weather history database for the weather conditions in past years. The results will help you decide how hot, cold, wet, or windy it might be!

Date:

Astronomy

Mar. 04, 2012 Rise Set
Actual Time 6:54 AM EST 6:20 PM EST
Civil Twilight 6:27 AM EST 6:48 PM EST
Nautical Twilight 5:55 AM EST 7:20 PM EST
Astronomical Twilight 5:23 AM EST 7:52 PM EST
Moon 2:30 PM EST (3/4) 4:15 AM EST (3/4)
Length of Visible Light 12h 21m
Length of Day
11h 26m
Waxing Gibbous, 83% of the Moon is Illuminated
Mar 4
Waxing Gibbous
Mar 8
Full
Mar 14
Last Quarter
Mar 22
New
Mar 30
First Quarter

Hourly Weather History & Observations

Time (EST) Temp. Windchill Dew Point Humidity Pressure Visibility Wind Dir Wind Speed Gust Speed Precip Events Conditions
12:54 AM 30.0 °F 20.0 °F 23.0 °F 75% 29.77 in 7.0 mi West 12.7 mph 18.4 mph 0.00 in Snow Light Snow
1:01 AM 28.4 °F 16.6 °F 24.8 °F 86% 29.75 in 1.8 mi West 16.1 mph 21.9 mph 0.00 in Snow Light Snow
1:13 AM 28.4 °F 18.5 °F 24.8 °F 86% 29.74 in 3.0 mi WSW 11.5 mph - 0.00 in Snow Light Snow
1:24 AM 28.4 °F 20.4 °F 24.8 °F 86% 29.74 in 10.0 mi WSW 8.1 mph - 0.00 in   Overcast
1:54 AM 28.9 °F 21.9 °F 23.0 °F 78% 29.77 in 10.0 mi WSW 6.9 mph - 0.00 in   Overcast
2:54 AM 28.9 °F 21.1 °F 21.0 °F 72% 29.76 in 10.0 mi West 8.1 mph - N/A   Overcast
3:08 AM 28.4 °F 18.5 °F 21.2 °F 74% 29.73 in 10.0 mi West 11.5 mph - N/A   Overcast
3:54 AM 28.0 °F 19.3 °F 21.0 °F 75% 29.76 in 10.0 mi West 9.2 mph - N/A   Overcast
4:54 AM 27.0 °F 18.7 °F 21.0 °F 78% 29.76 in 10.0 mi West 8.1 mph - N/A   Overcast
5:25 AM 28.4 °F 20.4 °F 21.2 °F 74% 29.73 in 10.0 mi West 8.1 mph - N/A   Overcast
5:54 AM 28.0 °F 21.7 °F 21.9 °F 78% 29.76 in 10.0 mi WSW 5.8 mph - N/A   Overcast
6:54 AM 28.0 °F 19.3 °F 23.0 °F 81% 29.77 in 10.0 mi WSW 9.2 mph - N/A   Overcast
7:54 AM 28.9 °F 20.4 °F 23.0 °F 78% 29.78 in 8.0 mi WSW 9.2 mph - N/A   Overcast
8:34 AM 28.4 °F 19.1 °F 24.8 °F 86% 29.75 in 2.5 mi West 10.4 mph - 0.00 in Snow Light Snow
8:54 AM 28.9 °F 19.8 °F 25.0 °F 85% 29.79 in 3.0 mi WSW 10.4 mph - 0.00 in Snow Light Snow
9:02 AM 28.4 °F 18.5 °F 24.8 °F 86% 29.76 in 2.5 mi West 11.5 mph - N/A Snow Light Snow
9:33 AM 30.2 °F 20.8 °F 26.6 °F 86% 29.76 in 2.5 mi WSW 11.5 mph - 0.00 in Snow Light Snow
9:40 AM 30.2 °F 21.3 °F 26.6 °F 86% 29.76 in 4.0 mi WSW 10.4 mph - 0.00 in Snow Light Snow
9:54 AM 30.9 °F 21.2 °F 26.1 °F 82% 29.79 in 2.0 mi WSW 12.7 mph - 0.00 in Snow Light Snow
10:08 AM 30.2 °F 20.8 °F 26.6 °F 86% 29.77 in 2.0 mi WSW 11.5 mph - N/A Snow Light Snow
10:22 AM 30.2 °F 20.2 °F 26.6 °F 86% 29.77 in 1.0 mi West 12.7 mph - 0.00 in Snow Light Snow
10:28 AM 30.2 °F 21.9 °F 26.6 °F 86% 29.76 in 0.8 mi WSW 9.2 mph - 0.00 in Snow Light Snow
10:33 AM 30.2 °F 20.2 °F 26.6 °F 86% 29.76 in 2.0 mi West 12.7 mph - 0.00 in Snow Light Snow
10:39 AM 30.2 °F 19.3 °F 26.6 °F 86% 29.76 in 7.0 mi West 15.0 mph - 0.00 in Snow Light Snow
10:43 AM 32.0 °F 22.1 °F 26.6 °F 80% 29.76 in 9.0 mi West 13.8 mph - 0.00 in   Overcast
10:54 AM 32.0 °F 21.6 °F 25.0 °F 75% 29.78 in 10.0 mi West 15.0 mph - 0.00 in   Overcast
11:08 AM 33.8 °F 23.5 °F 26.6 °F 75% 29.76 in 10.0 mi West 16.1 mph 20.7 mph N/A   Overcast
11:54 AM 33.1 °F 22.2 °F 24.1 °F 70% 29.78 in 10.0 mi West 17.3 mph 24.2 mph N/A   Overcast
12:54 PM 33.1 °F 21.5 °F 21.9 °F 64% 29.78 in 9.0 mi WNW 19.6 mph 25.3 mph N/A   Overcast
1:32 PM 32.0 °F 21.6 °F 26.6 °F 80% 29.75 in 2.5 mi NW 15.0 mph 20.7 mph 0.00 in Snow Light Snow
1:35 PM 30.2 °F 21.3 °F 26.6 °F 86% 29.75 in 0.8 mi NW 10.4 mph 20.7 mph 0.00 in Snow Light Snow
1:47 PM 33.8 °F 24.8 °F 30.2 °F 87% 29.75 in 2.0 mi NW 12.7 mph - 0.00 in Snow Light Snow
1:54 PM 33.1 °F 23.9 °F 28.0 °F 82% 29.77 in 8.0 mi NW 12.7 mph - 0.00 in   Overcast
2:07 PM 30.2 °F 20.8 °F 26.6 °F 86% 29.75 in 1.8 mi NNW 11.5 mph - 0.00 in Snow Light Snow
2:19 PM 30.2 °F 20.2 °F 26.6 °F 86% 29.75 in 0.5 mi NW 12.7 mph - 0.00 in Fog , Snow Snow
2:27 PM 30.2 °F 21.3 °F 26.6 °F 86% 29.76 in 0.5 mi WNW 10.4 mph - 0.00 in Fog , Snow Light Snow
2:33 PM 30.2 °F 21.3 °F 28.4 °F 93% 29.76 in 2.5 mi NW 10.4 mph - 0.01 in Snow Light Snow
2:42 PM 30.2 °F 20.8 °F 26.6 °F 86% 29.76 in 0.8 mi NW 11.5 mph - 0.01 in Snow Light Snow
2:54 PM 30.0 °F 21.1 °F 26.1 °F 85% 29.80 in 1.8 mi WNW 10.4 mph 19.6 mph 0.01 in Snow Light Snow
3:00 PM 30.2 °F 21.9 °F 26.6 °F 86% 29.77 in 2.5 mi West 9.2 mph - 0.00 in Snow Light Snow
3:06 PM 30.2 °F 22.6 °F 26.6 °F 86% 29.77 in 9.0 mi NW 8.1 mph - 0.00 in   Overcast
3:44 PM 32.0 °F 24.2 °F 24.8 °F 75% 29.77 in 10.0 mi WNW 9.2 mph - 0.00 in   Overcast
3:54 PM 32.0 °F 22.1 °F 23.0 °F 69% 29.80 in 10.0 mi WNW 13.8 mph 19.6 mph 0.00 in   Overcast
4:00 PM 32.0 °F 20.5 °F 24.8 °F 75% 29.78 in 1.2 mi WNW 18.4 mph - 0.00 in Snow Light Snow
4:04 PM 30.2 °F 20.2 °F 26.6 °F 86% 29.78 in 0.5 mi West 12.7 mph - 0.00 in Fog , Snow Snow
4:16 PM 30.2 °F 22.6 °F 26.6 °F 86% 29.78 in 2.0 mi West 8.1 mph - 0.00 in Snow Light Snow
4:24 PM 30.2 °F 21.9 °F 26.6 °F 86% 29.78 in 9.0 mi West 9.2 mph - 0.00 in Snow Light Snow
4:41 PM 30.2 °F 19.8 °F 24.8 °F 80% 29.78 in 1.8 mi WNW 13.8 mph - 0.00 in Snow Light Snow
4:47 PM 30.2 °F 21.3 °F 26.6 °F 86% 29.78 in 0.8 mi WNW 10.4 mph - 0.00 in Snow Light Snow
4:54 PM 30.0 °F 22.4 °F 27.0 °F 88% 29.82 in 1.2 mi WNW 8.1 mph - 0.00 in Snow Light Snow
5:10 PM 30.2 °F 22.6 °F 26.6 °F 86% 29.79 in 2.0 mi NW 8.1 mph - 0.00 in Snow Light Snow
5:23 PM 30.2 °F 23.4 °F 26.6 °F 86% 29.79 in 5.0 mi WNW 6.9 mph - 0.00 in Snow Light Snow
5:54 PM 30.0 °F 23.2 °F 25.0 °F 82% 29.83 in 10.0 mi WNW 6.9 mph - 0.00 in   Overcast
6:54 PM 28.9 °F 21.9 °F 25.0 °F 85% 29.85 in 10.0 mi West 6.9 mph - N/A   Mostly Cloudy
7:54 PM 28.9 °F 21.1 °F 26.1 °F 89% 29.87 in 2.0 mi WNW 8.1 mph - 0.00 in Snow Light Snow
8:02 PM 28.4 °F 22.2 °F 26.6 °F 93% 29.83 in 1.5 mi NW 5.8 mph - 0.00 in Snow Light Snow
8:12 PM 28.4 °F 19.7 °F 24.8 °F 86% 29.84 in 0.8 mi WNW 9.2 mph - 0.00 in Snow Light Snow
8:30 PM 28.4 °F 22.2 °F 24.8 °F 86% 29.84 in 2.0 mi SW 5.8 mph - 0.00 in Snow Light Snow
8:39 PM 28.4 °F 22.2 °F 24.8 °F 86% 29.84 in 7.0 mi West 5.8 mph - 0.00 in Snow Light Snow
8:54 PM 28.0 °F 20.8 °F 25.0 °F 88% 29.88 in 10.0 mi West 6.9 mph - 0.00 in   Overcast
9:01 PM 28.4 °F 19.7 °F 24.8 °F 86% 29.84 in 2.5 mi West 9.2 mph - 0.00 in Snow Light Snow
9:09 PM 28.4 °F 21.2 °F 24.8 °F 86% 29.84 in 1.2 mi West 6.9 mph - 0.00 in Snow Light Snow
9:13 PM 28.4 °F 21.2 °F 24.8 °F 86% 29.84 in 2.0 mi West 6.9 mph - 0.00 in Snow Light Snow
9:21 PM 28.4 °F 21.2 °F 24.8 °F 86% 29.85 in 7.0 mi West 6.9 mph - 0.00 in Snow Light Snow
9:54 PM 28.0 °F 20.8 °F 26.1 °F 92% 29.88 in 3.0 mi West 6.9 mph - 0.00 in Snow Light Snow
10:04 PM 28.4 °F 22.2 °F 26.6 °F 93% 29.85 in 2.5 mi West 5.8 mph - 0.00 in Snow Light Snow
10:15 PM 28.4 °F 20.4 °F 26.6 °F 93% 29.85 in 1.2 mi West 8.1 mph - 0.00 in Snow Light Snow
10:43 PM 28.4 °F 23.3 °F 26.6 °F 93% 29.85 in 1.8 mi WNW 4.6 mph - 0.00 in Snow Light Snow
10:51 PM 28.4 °F 23.3 °F 26.6 °F 93% 29.85 in 1.8 mi West 4.6 mph - 0.00 in Snow Light Snow
10:54 PM 28.0 °F 24.2 °F 26.1 °F 92% 29.88 in 2.0 mi WNW 3.5 mph - 0.00 in Snow Light Snow
11:03 PM 28.4 °F 24.6 °F 26.6 °F 93% 29.85 in 4.0 mi West 3.5 mph - 0.00 in Snow Light Snow
11:10 PM 28.4 °F - 26.6 °F 93% 29.85 in 5.0 mi Calm Calm - 0.00 in Snow Light Snow
11:20 PM 28.4 °F 23.3 °F 26.6 °F 93% 29.85 in 6.0 mi SW 4.6 mph - 0.00 in Snow Light Snow
11:49 PM 28.4 °F 22.2 °F 26.6 °F 93% 29.85 in 4.0 mi WSW 5.8 mph - 0.00 in Snow Light Snow
11:54 PM 28.4 °F 22.2 °F 26.6 °F 93% 29.85 in 4.0 mi WSW 5.8 mph - N/A Snow Light Snow